Theta_e
280 280 279 279 278 278 279 278 278 278 279 280 280 281 282 283 283 283 284 285 284 283 283 283 283 283 284 287 289 291 291 292 292 293 293 293 294 294 294 294 295 295 295 295 295 296 296 296 296 296 296 297 297 297 297 298 298 298 298 299 299 299 299 298 298 298 298 298 298 299 299 300 300 300 300 300 300 300 300 300 301 301 301 301 301 301
279 280 279 278 278 278 279 278 278 278 279 279 280 281 281 281 281 282 282 283 283 283 283 283 283 283 282 285 288 290 291 292 292 293 293 293 294 294 294 294 295 295 295 295 295 296 296 296 296 296 296 296 296 296 296 297 297 297 297 297 297 297 297 297 297 297 297 297 298 298 298 299 299 299 300 299 299 299 299 299 299 299 299 299 299 299
279 279 279 278 278 278 279 278 278 278 278 279 280 280 280 280 280 281 282 282 283 283 283 283 283 283 282 284 287 290 291 292 292 293 293 293 294 294 294 295 295 295 295 295 295 295 295 295 295 295 296 296 295 296 296 296 296 296 296 296 296 296 296 296 296 297 297 297 297 298 298 298 298 298 298 298 298 298 297 298 298 298 298 298 298 299
278 278 279 279 278 278 279 279 279 279 279 280 280 280 280 280 281 281 282 282 282 283 283 283 283 283 283 284 286 289 291 292 292 293 293 294 294 294 295 295 295 295 295 295 295 295 295 295 295 295 295 295 295 295 295 295 295 295 295 296 296 296 296 296 296 296 297 297 297 297 297 297 297 297 297 297 297 297 297 297 297 297 298 298 298 298
278 279 279 279 279 279 279 279 279 280 280 280 280 280 280 280 281 282 282 282 282 282 283 283 283 283 283 284 285 288 291 292 292 293 293 294 294 294 295 295 295 295 295 295 295 294 294 294 294 294 294 294 294 294 295 295 295 295 295 295 295 295 295 296 295 295 295 295 296 296 296 296 296 296 296 296 296 296 296 296 297 297 297 297 298 298
278 279 279 279 279 279 279 279 280 280 280 280 280 280 280 281 281 282 282 282 282 283 283 283 283 284 284 284 286 289 291 292 292 293 293 294 294 294 294 294 294 294 294 294 294 294 294 294 294 294 294 294 294 294 294 294 294 294 294 294 294 294 294 294 294 294 294 294 294 295 295 295 295 295 295 295 295 295 295 295 296 296 297 297 298 298
278 279 279 278 279 279 279 280 280 280 280 280 280 280 281 281 281 282 282 282 282 283 283 283 284 284 284 285 287 289 290 291 292 292 293 293 293 293 293 293 293 293 293 293 293 293 293 293 293 293 293 293 293 293 293 293 293 293 293 293 293 293 294 294 294 294 294 294 294 294 294 294 294 294 294 294 294 294 294 295 295 296 296 297 297 297
277 278 278 278 278 279 279 279 280 280 280 280 280 280 280 281 281 282 282 282 282 282 283 283 284 284 284 285 286 287 287 288 289 289 290 291 291 292 292 292 292 292 292 292 293 293 293 293 293 293 293 293 293 293 293 293 293 292 292 293 292 293 293 293 293 293 293 293 293 293 293 293 293 293 293 293 293 294 294 294 294 295 296 296 297 297
277 277 277 277 277 278 278 279 279 280 280 280 280 280 280 280 281 281 282 282 282 282 283 283 283 284 284 284 285 286 287 287 287 287 287 287 287 288 290 291 291 292 292 292 292 292 292 292 292 292 292 292 292 292 292 292 292 292 292 292 292 292 292 292 293 293 293 293 293 293 293 293 293 293 293 293 293 293 293 293 294 294 295 295 296 296
277 277 277 277 278 278 277 278 279 279 279 280 280 280 280 280 280 280 281 281 282 283 283 283 283 283 283 284 284 285 287 288 288 289 289 288 288 289 289 290 290 290 291 291 291 291 291 291 291 291 291 291 291 291 291 291 291 291 291 291 291 291 292 292 292 292 292 292 292 292 292 292 292 292 292 292 293 293 293 293 293 293 294 294 295 296
277 277 277 277 278 278 278 278 279 279 279 280 280 281 281 281 280 280 280 280 281 282 283 283 283 283 283 283 284 285 285 285 286 287 288 289 289 290 290 289 289 290 290 290 290 290 290 290 290 290 290 290 290 290 290 290 290 290 291 291 291 291 291 291 291 292 292 292 292 292 292 292 292 292 292 292 292 292 292 292 292 293 293 293 294 295
277 277 277 277 278 278 278 279 279 280 280 280 280 280 280 281 281 281 280 280 281 281 281 282 283 283 283 283 284 284 284 283 283 283 284 285 286 286 287 286 287 287 288 288 289 289 289 289 289 289 289 289 289 289 289 289 289 290 290 290 290 290 290 290 291 291 291 292 292 292 292 292 292 292 292 292 292 292 292 292 292 292 293 293 294 294
277 277 277 277 277 278 278 278 279 279 280 280 279 279 280 281 281 282 281 281 281 281 281 282 282 283 283 283 283 283 283 282 282 283 283 283 283 283 283 283 283 284 284 284 284 285 287 288 288 288 288 288 288 288 288 288 289 289 289 289 289 290 290 290 290 291 291 291 292 292 292 292 292 292 292 293 293 292 293 293 293 293 293 293 294 294
277 277 277 277 277 277 278 278 278 278 279 279 280 280 281 281 282 282 281 281 281 281 281 281 281 282 283 283 283 283 282 282 282 282 282 282 282 282 282 282 282 282 282 282 282 283 285 285 285 285 287 287 287 287 287 287 288 288 288 289 289 289 290 290 290 291 291 291 292 292 292 293 293 293 293 293 293 293 293 293 293 293 293 293 294 294
276 276 276 276 276 277 278 278 278 278 279 280 281 281 281 281 281 281 280 280 280 281 281 281 281 282 282 283 283 282 283 282 282 282 281 282 282 282 282 282 282 282 282 281 281 282 283 283 283 282 283 284 284 285 286 286 287 288 288 289 289 290 290 290 291 291 291 292 292 292 293 293 293 293 293 293 293 293 293 293 293 293 293 294 294 294
277 276 276 276 276 277 278 278 279 279 280 280 281 281 281 281 280 280 280 280 280 280 280 280 280 280 281 282 282 283 283 283 282 281 281 281 282 282 282 282 281 281 281 281 280 281 281 281 281 282 282 283 285 286 287 287 288 288 289 289 289 290 290 290 291 291 291 291 292 292 292 292 293 293 293 293 293 293 293 293 293 293 293 293 293 294
277 277 276 276 277 277 278 279 279 280 280 281 281 281 281 281 280 280 280 280 280 280 280 280 279 279 279 280 281 282 283 283 282 281 280 280 281 282 282 281 280 280 280 280 280 280 280 280 281 281 282 284 286 287 287 287 288 289 289 289 289 290 290 290 290 291 291 291 291 292 292 292 292 292 292 292 293 293 292 293 293 293 293 293 293 293
277 277 277 277 277 278 279 279 280 281 281 281 281 281 281 281 280 280 280 280 280 280 279 280 279 279 278 279 280 282 283 283 282 281 280 280 281 281 282 281 280 279 279 279 279 280 280 280 280 281 283 285 286 287 287 288 288 288 289 289 289 290 290 290 290 290 291 291 291 291 291 291 291 292 292 292 292 292 292 292 292 293 293 293 293 293
277 277 277 277 278 279 279 280 280 281 282 282 282 281 280 280 281 281 280 280 280 280 279 279 279 279 279 279 281 282 284 283 282 280 279 279 280 280 281 280 280 279 279 279 279 280 280 280 281 283 285 286 286 287 287 287 288 288 288 289 289 289 289 289 290 290 290 290 290 290 291 291 291 291 291 291 291 292 292 292 292 292 292 293 293 293
278 278 278 279 279 279 279 281 282 283 283 283 283 282 280 280 280 280 280 280 280 280 280 280 280 280 280 281 282 283 283 283 281 280 279 279 279 279 280 279 279 278 278 278 279 279 280 280 281 282 284 285 286 286 287 287 287 288 288 288 288 288 289 289 289 289 289 290 290 290 290 290 291 291 291 291 291 291 291 291 292 292 292 292 293 293
278 278 279 280 280 280 280 281 283 284 285 284 283 281 280 280 279 280 280 280 280 280 281 280 280 281 281 282 282 282 282 282 280 279 278 278 278 278 279 278 278 277 277 278 278 279 279 279 280 280 283 284 285 286 286 287 287 287 287 288 288 288 288 288 289 289 289 289 290 290 290 290 290 290 291 291 291 291 291 292 292 292 292 292 293 293
279 279 280 281 281 281 282 282 283 285 286 284 282 281 281 280 280 280 280 280 280 281 281 281 282 282 283 283 282 282 282 281 280 278 278 277 276 277 278 278 277 277 276 277 278 279 279 279 280 280 283 284 285 286 286 286 287 287 287 288 288 288 288 288 289 289 289 289 290 290 290 290 290 290 291 291 291 291 291 292 292 292 292 293 293 293
280 281 281 282 282 282 283 283 284 285 286 284 283 283 282 281 281 281 281 281 281 281 282 282 283 284 284 283 282 282 281 280 279 278 277 276 276 276 278 278 277 277 276 277 278 278 279 279 279 280 282 284 285 286 286 286 287 287 287 288 288 288 288 288 288 289 289 289 289 289 290 290 290 290 290 290 290 291 291 291 291 292 292 292 293 293
282 282 282 283 283 283 284 284 284 283 283 283 283 283 282 283 283 283 283 283 283 283 283 283 283 283 282 282 281 280 279 279 278 278 277 276 276 276 277 277 277 276 277 277 278 278 278 279 279 280 281 283 285 285 286 286 286 287 287 287 288 288 288 288 288 288 288 289 289 289 289 289 290 290 290 289 290 290 290 291 291 292 292 292 293 293
284 284 284 284 285 286 285 285 285 285 284 283 283 283 283 284 285 285 284 284 284 284 283 282 281 280 280 280 279 278 278 278 278 278 277 276 276 276 277 277 277 276 276 277 278 278 278 278 279 279 280 282 283 285 285 286 286 286 287 287 287 287 287 288 288 288 288 288 288 289 289 289 289 289 289 289 290 290 291 291 292 292 292 292 293 293
287 287 287 287 288 289 289 289 289 289 288 286 285 284 283 284 284 284 284 283 283 282 281 280 279 278 278 278 278 278 278 278 278 279 278 277 276 276 277 277 277 276 276 277 277 278 278 278 278 279 279 280 282 284 285 285 285 286 286 286 287 287 287 287 287 288 288 288 288 288 288 288 289 289 289 290 290 290 291 291 292 292 292 292 292 293
291 291 291 291 291 291 291 291 291 291 292 291 290 288 286 285 284 283 282 282 281 281 280 278 277 277 277 277 277 277 278 279 279 279 279 277 276 276 276 277 277 277 276 277 277 278 278 278 278 278 278 279 280 282 284 285 285 285 286 286 286 286 287 287 287 287 287 287 287 288 288 288 288 289 289 289 290 290 291 291 292 292 292 292 292 292
293 293 293 293 292 292 292 292 292 292 292 293 293 292 290 287 284 282 280 280 280 279 278 277 277 277 277 277 277 277 278 279 279 279 279 278 276 275 276 277 277 277 276 276 277 278 279 278 278 278 278 278 279 280 282 284 285 285 285 285 285 286 286 286 286 286 286 287 287 287 288 288 288 289 289 289 289 290 290 290 291 291 291 291 290 290
291 291 292 292 292 292 292 292 292 292 292 292 292 292 291 287 284 281 279 278 277 277 277 277 277 277 277 277 277 277 278 278 279 279 278 277 276 276 276 277 277 277 277 276 276 277 277 277 277 277 277 279 279 280 281 282 283 283 284 284 285 285 285 285 286 286 286 286 287 287 287 288 288 288 288 289 289 289 289 290 290 290 289 289 289 289
287 288 289 289 290 290 290 289 289 290 292 292 292 292 291 286 282 279 277 277 276 276 276 277 277 277 277 277 276 276 276 277 277 277 277 276 276 276 277 277 277 277 277 276 275 274 274 275 277 277 278 279 279 279 279 280 280 281 281 282 283 284 284 285 285 286 286 286 286 287 287 287 287 287 288 288 288 288 289 289 288 288 287 287 288 289
284 284 285 285 286 286 286 286 286 287 288 290 291 290 289 283 279 277 276 276 276 276 276 276 277 277 277 276 275 275 275 276 277 278 277 277 276 276 277 277 277 277 277 276 274 272 272 274 275 277 278 278 278 278 279 279 279 279 279 280 281 282 283 284 285 285 285 286 286 286 286 286 287 287 287 287 288 288 288 288 288 287 286 287 287 288
283 283 283 283 283 283 283 284 283 283 283 284 285 286 286 283 280 278 277 277 277 277 276 277 277 277 277 277 276 275 276 276 278 280 279 278 277 277 277 277 277 277 278 277 275 273 272 273 274 276 277 278 278 278 279 279 279 279 279 279 280 280 283 284 284 284 284 285 285 285 286 286 286 286 287 287 287 287 288 288 288 287 286 286 287 287
283 282 283 283 282 282 282 282 281 281 281 281 280 281 281 282 282 281 279 278 278 278 277 277 277 277 277 277 277 277 277 278 279 281 282 279 278 277 277 277 277 277 277 277 276 275 274 274 274 275 276 277 277 278 278 279 279 280 279 279 279 279 281 282 282 282 283 283 284 284 285 285 285 286 286 286 287 287 287 288 288 288 287 286 286 287
283 283 282 282 282 282 281 281 280 280 280 280 280 279 279 279 280 281 281 279 279 278 278 278 278 278 277 277 277 277 278 278 280 282 282 280 278 277 277 277 277 276 276 276 276 276 275 275 275 275 275 276 277 278 278 279 279 280 279 279 279 279 280 280 281 281 281 282 282 282 283 283 284 284 285 286 286 287 287 287 288 288 288 287 286 286
282 282 282 282 281 281 281 280 280 280 280 280 280 280 280 279 278 279 280 280 279 279 279 279 279 279 278 277 277 277 277 278 280 282 282 280 279 278 277 277 277 276 276 275 275 275 275 275 275 275 275 275 276 277 278 278 279 279 279 279 279 279 279 280 280 280 280 280 280 280 281 281 282 283 283 284 285 286 287 287 288 288 288 288 287 287
282 282 282 282 282 281 281 281 280 280 280 280 279 279 279 278 278 278 278 278 279 280 280 279 279 279 279 279 278 278 278 278 280 282 282 281 279 278 277 277 277 277 276 275 275 275 274 274 275 276 275 275 275 276 277 278 279 279 279 279 279 280 280 280 280 280 280 280 279 280 280 281 281 282 282 284 285 286 287 287 287 287 288 288 289 289
281 282 282 282 282 282 281 281 280 280 280 279 279 278 278 278 278 278 277 277 277 278 280 280 280 280 281 280 279 279 279 279 280 280 281 280 279 278 277 277 278 278 277 276 275 275 275 274 274 275 275 274 274 275 276 277 278 278 278 278 279 279 279 280 280 280 280 280 280 280 280 281 281 282 283 284 285 285 286 286 287 287 288 288 289 289
281 281 282 282 282 282 281 280 280 280 280 279 278 278 278 277 277 277 277 276 275 275 277 278 279 279 281 282 281 280 279 279 279 279 279 279 279 278 278 277 278 278 278 277 276 275 275 274 273 273 273 274 274 275 276 276 276 277 277 278 279 279 279 280 280 280 280 280 280 281 281 281 281 281 282 283 283 283 283 283 284 286 287 287 288 288
281 281 281 282 282 282 281 280 280 280 280 280 279 278 277 276 276 276 276 275 275 275 275 276 277 277 278 278 280 281 281 280 279 279 278 278 278 278 278 277 277 278 278 277 277 276 275 274 273 273 273 273 274 275 276 276 276 276 277 278 278 278 279 280 280 280 281 280 280 281 281 281 281 281 281 281 281 281 281 282 283 284 284 284 285 286
281 281 281 282 282 282 281 281 280 279 279 279 279 279 278 277 276 275 274 274 275 275 274 274 276 277 278 279 280 281 281 280 280 280 278 277 277 277 278 277 277 277 277 277 277 277 276 275 274 274 274 274 274 275 275 276 276 277 277 276 276 277 278 279 279 280 280 280 280 280 280 280 280 280 280 281 281 281 281 281 281 282 283 282 282 283
282 281 282 282 283 283 282 282 280 279 279 278 278 277 276 276 275 275 275 275 276 276 276 276 276 277 278 278 278 278 279 279 279 279 278 277 277 277 277 277 277 277 277 277 277 277 276 275 275 275 275 275 275 275 275 276 277 278 277 276 276 276 278 279 279 280 280 280 280 280 280 280 281 281 281 281 281 281 282 281 281 282 282 282 282 282
283 283 282 282 281 281 280 280 279 279 278 277 276 276 275 275 275 275 275 275 275 275 276 275 276 276 277 278 278 278 278 278 279 279 278 277 277 277 277 277 277 277 277 277 276 276 277 276 276 276 275 275 275 275 275 275 276 277 277 276 276 277 277 278 279 279 279 279 280 280 281 280 280 280 281 281 281 281 282 282 282 282 283 282 283 283
283 283 282 281 280 280 280 280 280 279 278 277 276 276 276 276 276 277 277 276 275 275 276 276 276 277 277 278 278 278 277 277 277 278 279 277 276 276 276 276 277 277 277 277 276 276 277 277 277 276 276 276 275 275 274 275 275 276 276 276 276 275 275 276 277 278 279 279 280 280 280 280 280 280 280 281 281 281 282 282 283 284 284 283 283 283
283 282 281 280 279 279 280 279 279 278 278 277 276 276 276 277 278 278 278 277 276 276 276 276 277 278 277 277 277 277 277 277 276 276 278 279 278 277 277 277 277 277 278 277 277 276 276 276 276 276 277 276 276 275 274 274 275 275 275 276 276 275 275 276 277 278 278 279 279 279 279 280 280 280 280 280 281 281 281 282 282 282 283 283 283 283
282 281 281 281 280 280 279 278 278 278 278 278 277 277 277 278 279 279 278 277 276 276 275 276 277 277 277 277 277 277 277 277 277 277 277 279 281 282 280 278 277 277 278 278 277 277 276 276 275 276 276 276 276 275 274 274 274 274 275 276 276 276 276 277 277 278 277 278 278 279 279 280 280 280 280 280 280 280 281 281 281 282 282 283 283 283
282 281 281 280 280 280 280 279 279 278 278 278 278 278 279 278 279 279 279 278 278 277 277 277 278 277 276 277 277 277 277 277 277 278 278 277 278 278 279 279 278 278 277 278 278 278 277 276 276 276 276 275 275 275 274 274 274 273 274 275 275 276 276 277 277 277 278 278 278 279 280 280 280 279 279 279 279 280 281 281 281 281 282 282 283 283
281 281 280 279 279 279 279 279 278 278 277 277 278 278 278 277 277 278 278 278 278 278 278 278 278 277 277 277 277 277 276 276 276 277 277 278 277 277 277 278 278 278 278 278 278 278 278 278 277 276 276 275 274 273 274 274 274 273 274 274 275 275 275 276 277 278 278 279 279 279 280 280 279 279 279 279 279 280 280 281 281 282 282 282 283 283
281 281 280 279 278 278 278 278 277 277 276 276 276 276 277 276 277 277 277 276 277 278 278 278 277 277 277 277 277 277 277 277 277 277 277 277 277 277 277 277 277 278 278 279 279 279 279 279 278 277 276 274 273 273 273 273 274 274 274 275 275 275 276 276 277 278 279 279 279 279 280 279 279 279 278 279 279 279 279 280 281 282 283 283 283 283
281 280 280 279 278 277 277 277 276 276 276 276 275 275 275 277 278 279 277 276 276 277 278 277 277 277 277 277 277 277 278 277 277 277 277 277 277 277 277 276 277 277 277 277 277 278 278 279 279 279 278 276 274 273 273 273 274 274 275 275 275 275 275 276 277 277 278 278 279 279 280 280 280 279 279 278 278 278 279 280 281 281 282 283 283 283
280 279 279 278 278 277 277 277 276 276 276 276 275 275 274 274 276 277 277 277 277 277 277 277 277 277 277 276 277 277 277 277 277 277 277 277 277 277 276 276 276 276 276 276 276 276 276 277 278 279 280 280 278 276 274 274 274 274 275 275 275 275 275 275 276 277 277 278 279 279 280 279 279 279 279 278 278 278 278 279 280 281 282 283 283 283
280 279 278 278 277 277 277 277 277 277 277 277 276 275 274 274 274 275 275 276 277 277 277 277 277 277 277 277 277 277 278 277 277 277 277 277 277 277 277 277 276 276 276 275 275 275 275 274 275 275 277 280 281 279 275 274 274 274 273 274 274 275 275 275 276 277 278 278 278 278 278 278 278 278 278 278 278 277 278 278 279 280 282 282 283 283
Wind_Speed
4 3 3 4 4 4 5 5 6 5 6 6 5 6 6 8 8 9 11 11 11 10 9 10 11 12 14 19 22 25 27 27 28 28 28 29 29 29 30 30 30 30 30 31 31 32 32 33 33 34 34 34 34 34 34 34 34 34 34 34 34 34 35 35 36 36 36 36 36 36 36 36 36 35 35 36 36 36 36 36 36 36 35 35 35 34
4 3 3 4 4 5 5 6 6 6 6 6 6 6 6 7 7 7 8 9 10 9 9 10 10 12 13 16 20 24 26 27 28 28 28 29 29 30 30 30 30 30 31 31 32 32 33 33 33 33 34 34 34 34 34 34 34 34 34 34 34 35 35 36 36 36 36 36 36 36 37 37 36 36 35 35 36 36 36 36 35 34 34 34 34 34
4 4 4 4 5 5 5 6 6 6 6 7 7 6 7 8 8 7 7 8 8 9 9 9 10 11 12 14 18 22 24 26 27 28 28 29 29 29 30 30 30 31 31 32 32 32 33 33 33 33 34 34 34 34 34 34 34 34 34 34 34 35 35 35 35 35 35 35 35 35 36 35 35 35 35 35 35 35 35 35 34 34 34 34 34 34
4 4 4 4 4 5 6 6 5 5 6 7 7 8 8 8 8 8 8 8 8 8 9 9 10 10 11 12 15 19 23 25 26 27 28 28 29 29 30 30 30 31 31 32 32 32 32 33 33 33 33 33 33 33 34 34 34 34 34 34 34 34 34 34 34 34 34 34 34 34 34 34 33 33 33 33 34 34 34 33 33 33 33 34 34 34
5 5 4 4 4 5 6 5 5 5 5 6 7 7 8 7 7 7 8 8 8 8 8 9 10 10 10 10 13 17 22 24 26 27 28 28 29 29 30 30 30 30 31 31 31 31 32 32 32 33 33 33 33 33 33 34 34 34 34 34 34 34 34 34 34 34 34 34 34 34 34 33 32 32 31 32 32 33 32 32 32 32 33 33 34 34
5 5 4 4 4 5 5 5 5 5 5 5 6 6 7 7 7 7 7 8 8 8 8 8 9 9 10 10 13 17 21 23 25 26 27 28 28 29 29 29 29 30 30 30 31 31 32 32 32 32 33 33 33 33 34 34 34 35 35 35 35 35 35 35 35 35 35 34 34 34 34 33 32 31 31 31 31 32 32 32 32 32 33 33 33 34
5 4 4 4 4 4 4 4 4 5 4 5 5 6 6 6 7 7 7 7 7 7 7 7 8 8 9 11 13 16 18 20 22 24 25 26 26 27 27 28 28 29 30 30 31 31 32 32 32 33 33 33 34 34 34 35 35 35 35 35 35 35 36 35 35 35 35 35 34 34 34 33 33 32 31 31 32 32 32 32 32 33 33 33 33 34
5 4 4 4 4 4 4 5 5 5 5 5 5 6 6 6 6 7 7 7 7 7 6 7 7 8 8 9 10 12 12 13 14 16 18 20 22 23 24 26 27 29 30 30 31 31 31 32 32 32 32 33 33 34 34 34 34 34 35 35 35 35 35 35 35 35 34 34 34 34 34 34 34 33 33 32 32 32 32 33 33 33 33 33 33 33
6 5 5 5 5 5 5 5 5 5 5 5 5 6 6 6 6 6 6 7 6 6 6 6 7 8 8 7 7 8 9 10 10 11 13 13 15 17 21 23 25 27 29 29 30 30 31 31 31 31 32 32 32 33 33 33 34 34 34 34 34 34 34 34 34 34 34 34 34 34 33 34 34 34 33 33 33 33 33 33 33 33 34 34 33 33
6 6 6 5 5 5 5 6 6 5 5 5 6 6 6 7 7 7 7 7 6 5 5 6 7 7 7 6 6 6 8 10 12 14 16 17 18 20 21 22 22 23 27 28 29 29 30 30 30 30 31 31 31 32 32 33 33 33 33 33 34 34 33 33 33 33 33 33 33 33 33 33 33 34 33 33 33 33 33 34 34 34 34 34 34 33
6 6 6 5 5 5 5 6 5 5 4 5 6 6 7 7 7 7 8 8 6 5 5 6 6 6 7 6 5 5 6 7 10 13 16 19 21 23 23 22 22 23 25 25 26 27 27 28 29 29 30 30 31 31 31 31 31 32 32 32 33 33 33 33 33 33 33 33 33 33 33 33 34 34 34 34 34 34 34 35 35 35 35 35 35 34
6 5 5 5 4 4 5 5 5 4 4 5 6 6 7 7 6 7 8 8 7 6 5 5 5 5 6 5 5 5 5 6 7 9 10 12 13 14 15 15 16 17 19 20 21 23 25 26 27 28 28 28 29 29 30 29 30 30 31 31 31 32 32 32 32 32 32 33 33 33 33 34 34 34 34 34 34 35 35 36 36 36 36 36 35 35
5 4 4 4 4 5 4 4 4 4 5 6 7 7 7 5 5 6 7 7 6 6 6 5 5 5 5 5 5 5 5 6 7 8 8 7 7 7 7 8 9 10 11 12 13 15 19 22 24 25 25 26 27 28 28 28 29 29 30 30 31 31 31 31 32 32 32 33 33 33 34 34 34 34 34 35 35 36 36 36 36 36 36 36 35 35
5 5 5 5 5 5 5 5 5 6 6 6 6 6 5 4 4 5 5 5 5 5 5 5 6 5 5 5 5 5 5 6 6 6 7 6 5 5 5 7 8 8 9 10 10 12 15 17 17 18 21 22 24 25 25 26 28 29 29 30 30 31 31 31 32 32 32 33 33 33 34 34 34 34 34 35 36 36 36 36 36 36 36 35 34 34
6 5 6 6 6 6 5 6 6 7 7 6 6 5 5 4 4 4 4 4 4 4 4 5 6 6 5 5 4 4 5 5 6 6 6 5 5 4 5 7 8 9 9 10 10 11 13 13 12 12 14 17 19 21 23 25 27 29 29 30 30 31 31 31 32 32 32 33 33 33 33 34 34 34 34 35 36 36 36 36 35 35 35 34 33 32
6 6 7 7 7 7 6 6 6 7 6 5 5 5 5 5 4 4 4 4 4 4 4 5 6 7 6 5 4 4 5 5 5 5 6 6 5 5 6 7 9 10 9 9 10 10 10 10 10 11 12 17 21 24 26 27 28 29 30 30 31 31 31 32 32 32 32 33 33 33 33 33 34 34 34 35 35 36 36 36 35 35 35 33 32 32
6 6 7 7 8 8 7 6 6 6 6 5 5 4 5 4 4 3 4 4 3 3 4 5 6 6 6 5 4 4 3 3 4 5 6 6 6 6 6 7 8 10 10 9 9 9 9 9 10 10 11 16 21 25 27 28 28 29 30 30 31 31 31 32 32 32 33 33 33 33 33 33 33 34 34 34 35 35 36 36 36 36 35 33 32 32
7 7 7 7 8 7 6 6 6 6 6 5 5 5 4 4 4 4 4 4 4 4 4 4 5 6 6 6 4 3 2 3 4 5 6 8 8 7 6 6 7 9 10 10 9 9 9 9 9 10 13 19 23 26 28 28 29 29 30 30 31 31 31 32 32 32 32 33 33 33 33 33 33 33 33 34 34 35 35 36 36 36 36 34 33 32
7 7 7 8 7 7 6 6 6 6 6 5 4 4 4 4 4 4 4 4 4 4 5 5 6 6 6 7 6 4 2 3 4 5 7 9 9 7 5 6 8 9 10 10 9 9 9 9 11 14 19 23 25 27 28 28 29 30 30 30 31 31 32 32 32 32 33 33 33 33 33 33 33 33 33 34 34 34 35 35 36 36 36 35 33 32
8 8 8 8 7 7 8 8 7 7 6 5 5 4 4 4 4 4 4 4 4 5 5 6 7 7 6 7 6 4 2 3 4 5 7 9 9 8 5 6 7 8 9 9 8 8 8 9 11 14 19 22 24 26 28 29 29 30 31 31 32 32 32 33 33 33 33 33 33 33 33 33 33 33 33 33 34 34 34 35 36 36 36 35 34 33
9 9 9 8 7 7 7 7 7 7 7 6 5 4 4 4 4 4 4 4 5 5 5 6 7 7 6 6 5 4 3 3 4 5 6 7 8 7 5 5 6 7 9 8 8 8 8 9 9 10 14 20 24 26 28 29 30 31 31 32 32 33 33 33 33 33 33 33 33 33 33 33 33 33 33 33 34 34 34 34 34 35 35 34 34 33
10 10 10 9 9 8 8 7 7 7 7 5 4 3 3 4 4 5 5 5 5 6 6 6 6 6 5 6 5 4 3 3 4 5 5 7 8 8 5 4 5 7 9 8 8 8 8 9 9 10 14 20 24 27 29 30 30 31 31 32 32 32 33 33 33 33 33 33 33 33 33 33 32 32 32 33 33 33 33 33 33 33 33 33 33 32
11 10 10 10 10 9 8 7 5 5 5 5 4 4 3 4 5 5 5 6 6 6 6 6 6 5 5 6 6 5 3 3 3 4 5 8 9 8 5 5 5 7 8 8 8 8 9 9 9 11 14 21 24 27 28 29 30 30 31 31 32 32 32 33 33 33 33 33 33 33 32 32 32 32 32 32 33 33 33 33 33 32 31 31 31 31
12 11 10 10 9 8 6 5 4 3 3 4 4 5 5 5 6 6 5 5 5 5 4 5 5 6 6 6 6 5 3 2 2 3 4 6 8 7 5 5 6 8 9 8 8 8 9 9 9 10 11 18 22 25 27 28 29 30 30 30 31 31 32 32 32 32 32 32 32 32 32 32 32 32 32 33 33 33 33 33 33 32 31 30 29 29
12 11 10 9 8 8 7 6 6 6 5 5 5 6 6 7 8 7 6 5 4 4 4 4 5 6 6 6 5 4 3 2 2 2 4 5 7 7 6 5 6 8 9 8 7 8 9 10 10 10 10 14 19 23 26 27 28 29 29 29 30 30 31 31 31 32 32 32 32 32 32 32 32 32 32 32 32 33 33 33 33 33 32 30 29 28
14 13 13 13 14 14 15 14 14 14 13 10 8 6 6 7 7 7 6 5 4 4 4 5 6 6 5 5 4 4 3 2 2 3 3 4 6 8 6 5 6 7 9 8 8 8 10 11 10 10 9 11 15 20 23 25 27 27 28 28 29 29 30 31 31 31 32 32 32 32 32 32 32 32 32 32 32 32 32 32 32 32 31 30 28 27
20 20 20 21 21 21 22 22 22 22 22 20 16 12 9 7 6 6 7 5 4 4 4 5 6 6 5 5 5 4 3 3 3 3 3 4 6 7 6 5 6 7 10 9 8 9 11 11 11 10 9 9 10 14 20 22 24 26 26 27 28 29 30 30 31 32 32 32 32 32 32 32 32 32 32 31 32 32 32 31 31 30 29 27 24 22
25 25 25 26 26 26 25 25 25 26 26 26 25 23 15 9 7 7 6 4 4 4 4 5 6 6 6 5 5 5 4 4 3 3 3 4 5 6 6 6 6 7 8 8 9 10 11 11 10 9 8 8 8 10 15 19 22 24 25 26 27 28 29 30 31 31 31 31 31 31 31 31 31 31 31 31 31 31 31 31 30 29 26 21 16 13
25 26 27 27 28 27 27 26 25 25 26 27 27 24 17 9 6 6 5 4 3 3 5 5 6 6 6 6 5 5 5 5 4 3 2 3 4 5 5 6 6 6 7 7 8 8 8 8 7 7 7 8 9 9 11 15 17 19 21 24 26 27 28 29 30 30 30 30 30 30 30 30 30 30 30 30 31 31 31 31 30 26 20 15 12 11
18 20 21 22 22 22 21 19 19 20 22 24 24 21 15 7 5 4 3 4 3 4 5 5 5 5 5 5 6 6 5 4 3 2 1 2 4 5 5 6 6 6 6 6 7 7 7 6 5 5 7 9 9 9 9 11 12 13 14 18 20 22 24 26 27 28 29 29 29 30 30 30 30 30 30 30 30 30 30 31 28 22 14 12 11 11
12 12 12 13 13 12 12 11 11 13 15 17 18 16 11 5 4 4 4 4 4 4 4 5 5 5 5 5 5 5 5 3 2 1 1 2 4 5 5 6 6 6 5 5 6 7 8 6 5 5 7 8 9 9 9 10 10 10 10 12 13 15 19 22 24 26 26 27 28 28 29 29 29 29 29 29 29 29 29 30 27 21 13 11 11 11
10 9 9 8 8 7 8 8 8 8 8 9 10 9 8 6 5 5 5 5 4 4 4 4 5 5 5 5 6 6 5 4 3 3 3 3 4 5 5 5 6 6 5 5 5 6 7 7 6 6 7 8 8 9 10 10 10 10 10 10 10 12 16 19 20 21 21 23 25 26 27 28 28 28 28 28 28 28 28 28 26 21 14 11 11 11
9 8 8 7 7 7 7 7 7 7 6 6 6 6 6 6 6 5 5 4 4 4 4 4 5 6 6 7 7 7 6 5 5 5 6 4 4 4 4 5 6 6 6 6 6 6 7 7 8 8 8 8 8 8 9 10 10 10 10 10 10 11 13 14 15 16 16 18 20 22 24 25 26 26 27 27 27 27 27 27 25 22 17 13 11 11
9 9 8 8 7 7 7 7 7 7 7 6 6 6 5 5 5 5 5 4 4 4 4 5 5 6 6 6 7 7 7 6 6 7 6 5 4 5 5 6 6 7 7 6 6 7 7 8 9 9 8 8 8 8 9 9 10 10 9 9 9 10 10 11 11 12 13 14 15 16 17 19 20 21 22 23 24 24 24 25 26 25 23 18 14 12
8 8 8 8 7 7 7 7 7 7 7 7 6 6 6 5 5 5 5 5 4 5 5 6 6 6 6 6 7 7 7 6 6 6 6 5 5 5 5 5 6 7 7 7 7 7 7 9 10 10 9 9 8 8 8 8 9 9 9 9 9 10 9 9 10 10 12 12 13 13 13 13 14 15 16 18 20 22 24 25 26 26 26 23 20 16
7 8 8 8 7 7 7 8 8 7 7 7 6 6 5 5 5 5 5 5 5 6 6 6 6 6 6 7 7 8 8 6 6 7 7 6 5 5 5 6 6 7 8 8 8 8 8 9 10 11 11 10 9 8 8 8 8 9 9 10 10 10 10 9 9 10 11 11 12 12 12 12 12 12 13 17 20 22 24 25 25 26 26 25 24 21
7 8 8 7 7 7 8 7 7 7 7 6 6 5 5 5 5 5 5 5 5 6 6 7 7 7 8 7 7 8 8 7 7 7 8 6 6 5 6 6 7 8 8 9 9 9 9 10 10 11 10 10 9 8 8 9 9 9 10 10 10 11 10 10 10 9 10 11 12 12 12 12 12 12 13 17 19 20 21 23 23 23 24 24 24 24
8 8 8 7 7 7 7 6 7 7 7 6 6 6 6 6 6 6 6 6 6 6 6 6 6 7 9 9 9 8 8 8 8 9 9 7 6 6 7 8 8 9 8 9 9 9 9 10 10 10 10 9 9 10 11 10 10 10 10 10 10 10 11 10 9 9 9 11 12 13 14 13 12 12 12 13 13 12 13 14 15 17 20 20 22 23
8 9 9 8 8 7 7 7 6 6 6 6 6 6 6 6 6 6 6 6 6 6 6 6 5 6 7 9 10 10 10 10 10 10 10 8 7 7 7 8 9 9 9 9 9 9 9 9 10 10 10 10 10 11 10 10 10 11 11 11 10 10 10 10 10 10 10 10 11 13 13 12 11 11 11 10 10 10 10 10 12 13 15 14 16 18
9 9 9 9 8 7 7 7 6 5 5 5 6 6 5 4 4 4 4 4 4 4 5 5 5 5 6 7 8 9 10 9 9 9 8 7 6 6 7 8 9 9 9 9 9 9 9 10 10 11 11 10 10 11 10 10 11 11 12 11 9 9 10 11 11 10 10 10 10 11 11 11 11 11 11 10 9 9 9 9 10 11 12 11 11 12
9 9 8 8 7 6 6 6 6 5 5 5 5 4 4 3 3 2 2 2 3 3 3 4 4 5 6 6 7 7 9 9 9 9 7 8 8 8 7 8 8 9 9 9 9 9 9 10 11 11 10 10 11 12 12 12 13 14 14 12 11 11 12 12 12 11 10 9 9 10 11 11 12 12 11 10 10 9 9 10 10 11 11 10 9 10
10 9 7 6 5 4 4 4 5 5 5 4 4 5 5 4 4 3 3 2 2 3 3 3 3 4 6 6 7 7 7 8 8 9 9 10 10 9 8 8 8 8 8 9 10 10 10 10 11 11 10 10 11 11 11 12 12 13 13 12 12 13 13 12 11 10 9 9 9 9 11 11 11 11 11 10 10 9 9 10 11 12 12 10 9 9
8 7 5 4 4 4 4 4 4 4 4 4 4 5 5 5 4 4 4 3 3 3 3 3 3 4 6 7 7 6 6 6 7 8 9 9 9 9 9 9 9 8 8 9 9 10 10 10 10 10 10 10 10 11 13 13 12 12 11 12 12 11 8 9 9 9 10 10 10 10 10 10 10 10 10 10 10 9 9 10 12 13 12 10 10 9
5 4 4 3 3 3 4 4 4 4 4 4 5 5 5 5 5 5 5 4 4 3 3 3 3 4 7 8 8 7 6 6 6 7 8 9 10 9 9 9 9 9 8 8 9 9 9 10 10 9 9 9 10 11 12 12 12 12 11 11 11 11 9 9 10 11 11 11 11 10 10 10 10 10 10 10 10 9 9 8 9 9 10 10 10 10
4 4 3 4 4 4 4 4 4 5 5 5 5 5 5 5 5 5 5 4 4 4 3 3 3 4 6 7 7 7 6 6 6 6 6 9 11 12 10 8 8 8 8 8 8 8 9 9 9 8 8 9 10 11 12 12 12 12 12 11 11 11 11 11 11 12 12 11 11 11 11 11 11 11 11 10 10 9 9 8 8 8 9 9 9 9
4 4 4 4 4 5 6 6 5 5 5 5 5 5 5 5 5 5 5 5 5 4 4 4 4 5 6 7 7 7 6 6 6 6 6 6 7 7 7 7 7 7 6 7 8 8 9 9 9 9 9 9 10 11 11 12 12 12 11 11 11 10 11 11 11 11 11 11 11 11 12 11 11 11 10 10 10 10 9 8 8 8 9 9 9 9
5 5 5 5 5 5 5 5 5 5 5 5 5 5 5 5 5 4 5 5 5 5 5 5 5 6 8 7 7 7 7 8 8 7 6 6 6 6 5 6 6 7 6 7 8 8 9 9 9 9 9 9 10 10 11 10 11 11 11 11 10 10 10 10 10 10 10 10 10 11 11 11 10 10 10 10 10 10 9 9 8 8 8 8 9 9
6 6 5 5 5 5 5 5 5 5 5 5 5 5 5 5 5 5 4 5 5 5 5 5 6 7 8 8 8 8 8 9 9 8 7 7 6 6 5 5 5 6 6 7 8 9 9 10 10 9 8 8 9 9 10 10 10 10 10 10 10 10 10 9 9 9 9 10 10 11 11 9 9 10 10 10 10 9 9 9 9 8 8 8 8 9
6 6 6 5 5 5 5 5 5 5 6 5 5 4 4 5 7 7 5 4 4 5 5 6 6 7 8 7 7 8 9 9 9 8 7 6 6 5 5 5 5 5 6 6 7 7 8 9 9 9 8 8 8 9 10 10 10 10 10 9 9 10 10 9 9 9 9 10 11 11 10 9 9 9 10 10 11 11 10 10 9 8 7 7 7 8
5 5 5 5 5 5 5 5 5 6 6 6 5 5 4 4 5 5 5 5 4 5 5 6 6 7 8 8 8 8 8 8 8 8 7 6 5 5 5 5 5 5 6 6 6 6 7 7 7 8 8 9 9 9 9 9 9 9 9 9 9 9 9 9 9 9 10 10 11 11 11 10 10 9 9 10 11 11 11 10 9 8 7 7 7 8
5 5 5 5 5 6 5 5 6 6 6 6 5 5 5 4 4 4 4 5 5 5 5 6 6 7 8 9 9 9 9 9 9 9 7 5 5 5 5 5 5 6 7 7 7 6 6 7 6 6 6 9 9 9 7 7 8 8 9 8 8 7 8 8 8 9 10 11 11 11 12 11 11 10 9 10 10 11 11 10 9 8 7 7 7 8
Wind_Direction
238 237 230 218 223 237 245 234 233 240 251 252 250 250 253 255 256 257 257 258 258 259 259 260 261 263 266 269 271 273 275 276 277 278 279 280 280 281 281 282 282 283 284 284 284 284 285 285 285 285 285 285 285 285 285 285 284 284 284 285 285 285 285 286 286 286 286 287 287 286 286 285 284 284 282 282 281 280 280 279 278 277 276 275 275 274
236 237 234 217 220 233 250 237 231 233 244 249 251 251 251 252 254 255 255 254 254 254 256 258 260 261 262 265 269 271 273 275 276 277 279 279 280 280 281 282 282 283 284 284 285 286 286 286 286 287 287 287 287 287 287 287 287 287 287 286 286 286 286 287 287 287 287 287 287 287 287 287 288 287 286 285 283 282 281 280 280 279 278 277 276 275
232 236 234 219 219 229 248 244 236 233 237 246 250 251 251 253 255 256 256 255 254 253 253 256 259 261 262 263 267 270 271 273 275 277 278 279 280 281 282 283 284 285 286 286 287 288 289 289 289 289 289 289 289 288 288 288 288 287 287 287 286 286 286 286 286 286 285 286 286 286 287 288 289 290 289 287 285 283 281 281 280 279 278 277 276 275
231 236 236 229 229 233 243 246 245 241 239 246 250 251 250 252 254 256 255 255 255 255 255 255 257 260 262 263 265 268 270 272 274 276 278 279 281 282 283 285 286 287 288 288 289 289 290 290 289 289 289 289 289 289 288 288 288 287 287 287 286 286 286 286 285 286 285 285 286 286 286 287 288 288 288 287 285 283 281 280 279 278 277 276 275 274
231 235 235 235 238 242 243 244 245 246 246 248 250 250 249 250 252 255 255 255 255 256 257 256 256 256 258 260 263 266 269 272 275 277 279 281 283 284 286 287 288 288 289 289 289 289 289 289 289 289 289 289 289 289 289 289 289 289 289 289 289 288 288 288 287 287 287 286 286 286 286 287 287 286 286 285 284 283 281 280 279 278 277 276 275 274
232 233 234 234 241 246 248 246 245 246 249 250 250 249 248 248 249 252 254 255 255 256 256 255 255 254 256 259 263 267 271 274 277 279 281 283 284 285 286 287 288 289 289 289 289 290 290 290 291 291 291 291 291 292 292 292 292 291 291 291 291 290 290 289 289 288 288 287 287 287 287 286 286 285 283 282 282 281 281 280 279 278 277 277 276 275
236 234 232 237 242 247 250 250 247 246 249 253 254 252 250 248 248 248 249 251 253 255 257 257 257 257 258 260 264 268 272 276 279 281 282 283 284 285 286 287 288 289 290 290 291 291 291 292 292 292 292 293 293 293 293 292 292 292 292 291 291 290 290 289 289 288 287 287 286 286 286 286 285 284 283 282 281 281 280 280 279 278 278 277 276 276
241 239 234 238 245 251 252 250 246 242 243 250 255 257 257 254 251 250 249 249 250 252 257 260 261 261 260 261 263 267 271 275 277 279 280 280 282 283 286 288 289 290 291 291 291 292 292 292 292 293 293 293 293 292 292 292 291 291 291 290 290 289 289 288 287 287 286 286 285 285 285 285 285 284 283 283 282 281 280 279 279 278 277 277 276 275
240 243 240 238 241 248 255 253 246 239 236 243 249 254 258 260 260 258 256 253 251 250 254 260 263 264 262 260 261 264 268 270 272 273 276 277 280 284 287 289 290 291 291 291 291 292 292 292 293 293 292 292 292 292 292 291 291 291 290 290 289 288 288 287 286 286 285 285 284 284 284 284 283 283 283 282 282 281 280 279 278 277 276 275 274 273
237 241 245 243 241 243 250 255 251 241 230 238 244 248 253 258 262 264 264 261 257 253 251 255 260 264 266 265 264 266 271 273 276 278 280 283 285 287 289 290 290 290 290 291 291 292 292 292 292 292 292 292 292 292 292 292 291 291 290 290 289 288 288 287 286 286 285 284 284 283 283 283 282 282 282 281 280 279 278 277 276 275 274 273 272 271
235 238 242 246 244 243 244 251 252 246 232 239 244 246 247 249 253 259 264 263 261 257 252 251 256 264 272 275 277 277 277 278 279 280 282 285 287 288 289 289 289 289 290 290 291 291 292 292 292 293 293 293 293 293 292 292 291 291 290 290 289 289 288 287 287 286 285 284 283 282 282 281 281 280 280 279 278 277 276 275 274 273 272 271 270 269
231 234 237 241 243 243 243 246 247 244 235 239 243 245 243 240 240 245 253 257 259 258 257 258 260 265 272 280 283 283 280 278 278 280 281 283 285 286 287 287 287 287 289 289 290 291 292 293 293 293 293 293 293 293 292 292 291 290 290 289 289 288 288 287 286 285 284 283 282 281 280 279 278 278 277 276 275 275 274 273 272 271 270 269 269 268
228 230 233 237 239 240 241 243 243 240 234 234 237 239 241 235 231 232 240 248 253 257 263 269 272 272 272 274 276 278 277 276 277 278 279 280 280 281 281 282 284 285 288 289 290 291 292 293 293 293 293 293 293 292 292 291 290 289 289 288 287 286 286 285 284 283 282 280 280 279 278 277 276 275 275 274 274 273 272 271 271 270 269 268 268 267
224 226 229 235 237 237 237 237 238 237 234 232 233 235 236 232 227 227 235 245 252 257 265 273 277 278 276 268 265 266 271 274 276 276 275 275 274 277 282 286 288 289 290 290 289 288 290 291 292 292 292 292 292 291 290 289 288 287 286 285 284 283 283 282 281 281 280 279 278 278 277 276 276 275 275 274 274 273 273 272 271 270 268 267 266 266
218 219 225 231 234 234 233 233 234 236 235 234 234 235 237 235 231 230 238 250 258 264 271 275 277 277 274 267 262 262 267 271 274 276 276 276 277 282 290 291 290 289 289 288 287 287 289 289 289 288 288 287 287 286 285 285 284 284 284 283 283 282 282 281 281 281 280 280 280 279 279 278 278 277 277 277 276 276 276 274 273 271 269 268 266 265
213 215 222 228 233 234 232 231 233 236 238 237 235 233 234 235 233 234 242 253 261 268 273 278 280 280 275 266 260 259 264 269 274 279 284 284 285 289 294 292 290 289 287 285 285 286 288 286 284 283 283 284 284 285 285 284 284 284 284 283 283 283 283 283 283 282 282 282 282 281 281 281 280 280 280 279 279 279 279 278 277 275 272 270 268 267
213 215 220 227 232 235 233 232 233 236 238 236 233 230 228 228 229 233 241 250 258 265 267 274 279 282 283 278 269 258 259 271 281 286 289 288 288 289 291 289 287 286 286 284 283 284 285 283 281 281 281 283 284 285 286 285 285 285 285 285 285 285 285 285 284 284 284 284 284 283 283 283 283 282 282 282 281 282 282 281 280 279 276 274 271 269
213 215 220 226 231 233 233 232 233 235 235 235 233 230 228 226 227 231 238 245 252 258 264 267 271 274 281 283 280 272 273 288 292 292 289 287 287 288 289 286 283 283 284 282 282 281 282 282 282 283 284 286 287 287 288 288 288 287 287 287 287 286 286 286 286 285 285 285 285 285 285 285 284 284 284 283 283 282 282 282 281 280 278 276 274 271
213 215 219 225 229 232 232 231 231 231 231 229 227 226 229 229 229 231 236 240 246 251 259 263 265 267 271 274 278 285 308 306 299 294 290 289 289 291 293 287 283 281 281 281 282 283 284 284 285 287 288 289 289 289 289 289 289 289 288 288 288 288 287 287 287 287 287 287 287 286 286 286 285 285 285 284 283 283 282 281 280 279 278 277 274 272
215 216 217 221 225 230 233 232 231 229 227 223 219 218 222 227 231 236 241 244 246 249 252 259 262 265 268 272 277 287 313 311 301 293 289 289 290 291 293 287 283 281 280 280 283 285 286 285 286 287 288 289 290 290 290 289 289 289 289 288 288 288 288 288 288 288 287 287 287 287 286 286 285 285 284 283 282 281 280 279 279 279 279 278 275 272
217 220 219 217 220 226 231 231 230 227 224 217 213 213 220 227 233 238 242 245 247 249 251 254 258 261 266 271 276 287 308 308 301 294 291 289 288 287 289 284 282 281 282 283 284 285 285 284 284 285 287 289 290 290 290 289 289 289 288 288 288 288 287 287 287 287 287 287 287 287 286 286 285 284 283 283 282 282 282 281 281 281 281 280 278 274
218 222 221 218 220 226 233 234 230 224 217 209 208 215 225 230 237 243 246 247 248 250 252 256 259 263 267 272 276 284 300 298 294 292 293 288 286 285 287 285 283 283 283 285 286 286 284 284 284 285 287 289 290 290 290 289 288 288 287 287 287 287 287 287 287 287 287 287 286 286 286 286 285 285 285 285 285 285 286 285 285 284 284 282 280 278
220 224 224 222 223 228 234 234 229 220 213 212 217 225 229 233 241 248 251 251 252 255 257 261 265 267 268 271 275 280 286 282 280 282 286 285 285 287 291 291 287 285 283 286 289 290 288 286 286 286 288 289 289 290 290 289 289 288 287 287 287 287 287 287 287 287 287 286 286 286 286 287 288 288 289 289 289 289 290 289 287 286 284 282 281 279
221 225 227 225 226 227 232 231 228 223 220 226 232 236 238 240 245 249 254 256 259 261 265 268 269 268 266 268 273 276 277 268 263 267 274 279 283 286 293 294 289 286 284 287 291 292 291 288 285 285 286 288 289 290 290 290 289 289 288 288 288 288 288 288 288 288 287 288 288 288 289 290 291 291 291 291 291 290 290 289 287 286 284 281 279 278
218 223 226 226 225 224 225 225 226 226 227 230 234 238 240 244 249 253 257 257 257 256 257 261 264 266 268 273 276 277 276 253 242 253 268 277 282 285 289 291 290 288 287 289 291 292 290 288 287 286 286 287 289 290 290 290 290 290 290 289 289 289 289 289 289 289 290 290 291 291 292 292 292 292 291 290 289 288 287 287 286 285 285 283 280 278
216 218 221 223 224 226 227 230 232 234 235 235 233 231 234 240 245 249 250 245 240 236 241 252 260 266 272 277 280 280 281 259 242 246 263 277 283 285 287 289 289 288 289 291 293 292 290 289 289 288 287 287 288 289 289 290 290 290 290 290 290 291 291 291 292 292 292 292 293 293 292 292 291 291 290 289 289 288 287 287 288 287 288 287 284 279
226 226 227 229 230 232 233 236 239 242 244 245 244 241 236 233 234 237 235 227 218 218 233 251 263 271 277 278 279 280 283 278 266 259 263 276 281 284 288 290 290 290 291 292 292 291 290 289 290 289 288 285 285 286 287 289 290 291 291 291 292 292 292 292 293 293 293 293 292 292 292 291 291 291 291 292 292 292 292 292 293 292 292 291 287 280
243 242 241 241 242 243 244 246 248 250 252 254 254 252 249 238 227 224 221 205 197 208 234 251 264 274 280 281 281 282 283 280 275 269 263 271 275 279 287 292 292 292 293 292 291 289 288 287 288 288 286 284 282 283 286 290 292 293 293 292 292 292 291 291 291 291 292 292 292 292 292 292 292 293 294 294 295 296 296 297 298 297 296 294 289 281
254 254 253 253 253 253 254 255 256 257 257 257 257 257 256 245 226 214 205 183 185 210 239 253 264 273 280 284 285 284 280 274 267 257 245 262 271 278 288 292 293 294 296 295 293 290 284 282 283 284 285 286 286 287 289 293 294 293 292 291 290 289 289 289 289 290 290 291 291 292 292 292 293 294 295 296 297 298 299 300 300 299 298 295 290 283
254 255 256 257 257 258 258 259 260 260 260 260 260 261 262 248 218 198 189 174 185 214 242 257 266 273 280 285 285 281 274 263 243 212 196 260 274 281 289 291 292 295 300 301 299 295 288 282 280 282 287 290 291 292 292 292 291 289 288 287 286 286 286 286 287 289 290 291 291 292 292 293 293 294 295 296 297 298 299 300 300 299 297 294 290 285
241 244 248 252 254 256 257 258 259 260 261 261 262 263 262 241 202 183 178 178 190 214 240 258 266 269 271 274 276 274 272 263 243 208 209 269 277 282 290 291 291 293 297 299 300 300 299 295 291 288 290 293 292 291 290 289 287 286 284 284 283 283 283 285 287 288 290 291 291 292 292 292 293 293 294 295 296 297 298 298 298 297 295 293 290 286
229 233 237 241 244 247 250 251 252 254 256 257 258 256 250 231 207 189 182 185 194 210 234 251 259 260 258 257 259 264 269 272 275 277 279 276 278 281 287 287 289 290 290 286 287 290 296 299 301 301 298 295 292 290 288 287 287 286 285 284 283 282 283 285 287 288 289 290 291 291 291 292 292 292 293 294 295 296 296 297 297 296 295 292 290 288
221 224 228 231 233 236 238 240 241 242 243 243 241 240 238 230 220 209 198 195 197 205 222 238 248 253 254 253 255 259 264 269 276 281 282 279 280 282 285 286 287 289 290 284 279 277 280 289 296 300 299 294 292 290 290 289 288 287 287 286 285 284 285 286 287 287 287 288 289 289 290 290 291 291 292 293 293 294 295 296 296 296 296 294 291 290
216 218 221 224 226 229 232 233 234 235 235 233 230 227 225 225 223 220 214 207 204 205 213 225 236 244 251 254 257 260 263 265 271 277 281 279 279 281 285 286 288 290 291 287 283 280 277 282 289 294 296 294 291 290 291 291 291 290 288 287 286 286 286 286 285 285 285 286 287 287 288 288 289 289 290 291 292 293 294 296 297 297 297 295 293 291
212 215 217 219 222 226 229 230 231 230 229 228 225 222 218 216 217 218 217 214 212 211 215 220 227 234 242 249 256 261 264 266 270 274 276 274 276 280 285 284 287 290 291 290 289 287 284 284 287 290 294 295 294 292 291 291 292 292 290 289 288 287 287 286 285 284 285 285 284 284 285 285 285 286 287 289 291 293 295 297 298 298 297 295 293 290
211 215 218 219 221 223 226 227 227 227 225 223 220 217 213 212 211 213 215 215 216 218 220 222 224 227 231 239 248 257 264 267 271 273 272 272 275 279 282 283 287 289 290 289 288 288 286 287 288 290 292 294 295 296 295 294 294 293 293 293 292 290 288 286 284 283 283 283 283 283 284 284 283 284 285 290 292 294 296 297 298 298 297 295 294 292
214 219 222 222 221 222 223 223 222 220 220 218 216 213 211 210 211 212 213 213 215 219 223 226 227 228 230 234 241 249 259 265 269 270 269 269 271 274 277 280 282 284 283 285 287 288 289 289 290 291 290 290 292 297 300 301 299 297 295 296 296 294 292 289 286 283 282 282 282 283 284 285 285 286 288 291 293 295 297 297 297 297 298 297 297 296
218 223 226 224 222 221 221 220 219 217 214 213 211 210 209 210 210 211 212 211 212 214 219 224 229 233 235 240 243 247 254 260 263 265 264 264 264 266 270 275 278 277 276 279 283 287 289 289 291 292 292 289 290 292 297 301 301 299 297 297 296 295 294 293 290 286 283 283 283 285 286 287 288 290 291 292 293 294 294 294 296 298 300 301 300 300
218 224 227 225 222 220 219 218 217 214 211 208 207 205 205 208 211 212 212 211 210 211 215 221 229 236 239 244 248 252 256 257 259 260 260 258 257 258 263 270 274 276 275 275 277 279 281 282 284 287 290 292 293 294 295 296 297 298 300 300 298 296 295 296 295 292 288 287 286 287 288 288 289 289 289 290 290 291 293 295 298 301 303 304 303 302
218 223 227 226 223 218 215 215 212 208 205 205 205 202 198 201 205 209 212 211 212 214 216 221 230 241 247 250 253 255 257 258 258 258 258 255 252 253 256 263 269 273 275 274 273 274 275 277 279 281 284 287 290 293 294 295 297 300 304 303 302 301 301 301 299 296 291 287 286 286 287 288 288 288 288 288 289 291 293 296 298 300 301 301 302 302
218 222 226 226 222 217 215 211 205 199 197 198 198 198 196 195 194 197 203 211 217 220 221 227 239 252 257 255 254 253 253 255 255 255 255 253 251 251 252 257 263 269 273 274 273 272 272 274 277 279 281 282 285 288 290 293 297 300 303 301 300 300 301 301 299 296 292 289 287 287 288 289 289 289 289 289 289 289 290 292 293 294 295 294 295 297
219 222 224 221 216 210 204 197 193 192 192 191 194 197 199 195 192 192 194 208 219 224 223 230 246 260 267 265 259 253 248 247 248 249 250 249 248 248 250 253 258 263 269 272 272 271 269 271 275 278 280 283 287 289 290 292 295 298 299 298 298 299 299 297 297 296 296 294 291 289 289 290 291 291 291 290 289 287 287 286 287 288 290 290 291 291
220 221 217 210 201 192 186 186 188 190 191 194 200 203 201 195 192 194 202 213 223 229 231 235 246 260 268 270 269 265 257 249 246 246 247 246 245 245 246 248 251 256 262 268 271 272 272 272 273 276 280 284 286 288 289 292 294 296 295 296 299 301 300 300 300 300 298 295 294 292 291 291 291 291 290 289 287 286 285 284 284 285 286 288 289 289
215 213 201 191 186 183 184 188 191 193 194 200 205 207 205 199 197 201 210 220 229 234 237 239 248 259 265 269 271 273 272 264 254 248 246 245 242 241 244 244 246 249 253 260 268 275 278 276 275 275 278 282 284 285 286 289 292 293 294 294 295 294 292 296 299 301 299 296 294 293 292 292 292 291 290 288 286 285 283 283 282 282 283 285 286 287
203 200 191 186 184 188 196 200 201 201 202 206 208 208 206 202 201 204 213 224 232 236 236 238 248 258 262 265 269 273 276 274 267 260 253 251 251 251 249 247 247 250 252 256 263 270 277 280 281 280 280 280 280 281 284 287 290 291 292 292 292 290 287 290 293 295 295 294 293 292 292 293 293 293 291 289 287 286 285 285 285 285 285 285 285 286
211 210 205 198 197 200 206 206 205 206 210 213 214 212 209 204 205 209 215 222 230 236 237 235 241 251 259 265 269 274 276 277 276 274 270 263 258 254 251 248 248 250 253 258 261 265 269 274 279 283 285 282 279 278 278 282 286 288 289 291 291 290 288 289 289 289 289 289 290 291 293 294 294 293 292 291 290 289 287 286 286 286 287 287 287 287
220 219 215 208 207 208 210 208 208 210 215 219 219 217 212 205 205 210 216 220 225 231 236 236 240 247 254 261 266 270 274 276 277 277 276 274 271 266 260 256 252 251 253 259 264 267 268 270 272 276 280 281 281 280 278 278 281 284 287 289 290 289 287 286 287 287 287 287 288 291 294 296 296 294 293 293 292 291 290 287 286 285 286 287 288 288
221 220 216 210 209 210 213 212 211 213 219 223 224 223 216 208 207 210 217 216 220 227 235 239 243 247 253 257 260 263 267 271 273 275 276 276 276 276 273 271 267 264 262 266 270 272 273 270 267 265 265 268 272 276 278 279 280 281 284 286 287 288 287 288 290 292 292 290 290 291 294 296 297 298 298 297 295 293 292 290 288 286 285 285 286 287
215 214 211 207 208 210 214 214 214 216 221 225 228 227 224 217 215 215 216 212 215 223 232 238 244 249 253 256 257 260 263 266 269 271 272 273 276 278 279 280 282 282 282 279 277 276 275 270 262 254 247 248 256 266 274 277 279 281 282 285 287 290 292 294 296 298 298 295 294 294 296 297 299 300 300 298 295 294 293 292 290 288 285 284 284 285
206 207 206 206 208 212 215 215 217 220 224 226 228 229 227 223 220 219 217 216 219 225 233 238 244 250 255 257 259 260 261 264 266 268 268 269 272 275 279 283 287 290 290 289 287 286 286 281 270 258 246 246 251 260 271 277 281 284 285 286 289 293 295 297 298 298 298 298 298 300 302 302 302 301 298 295 293 293 293 292 290 288 286 285 286 287
204 204 204 207 210 215 217 218 220 223 227 228 228 228 227 226 225 223 220 220 225 230 236 240 245 250 255 258 259 260 260 262 264 265 266 267 269 272 276 280 284 288 290 291 292 294 296 296 293 284 268 262 262 264 270 279 286 290 290 289 290 293 294 295 296 298 300 300 301 302 303 303 301 300 297 295 294 294 294 293 292 291 291 292 293 294